Havre, MT

3:19 PM MST on February 19, 2018 (GMT -0700)
Havre City-County

Weather History for KHVR - April, 2014

Change the Weather History Date:

Saturday, April 19, 2014

  Actual Average Record
Temperature  
Mean Temperature 47 °F 46 °F  
Max Temperature 64 °F 60 °F 89 °F (1910)
Min Temperature 30 °F 32 °F 8 °F (1951)
Degree Days  
Heating Degree Days 18 19  
Month to date heating degree days 427 424  
Since 1 July heating degree days 7830 7542  
Cooling Degree Days 0 0  
Month to date cooling degree days 0 0  
Year to date cooling degree days 0 0  
Moisture  
Dew Point 26 °F    
Average Humidity 53    
Maximum Humidity 92    
Minimum Humidity 14    
Precipitation  
Precipitation 0.00 in 0.03 in 0.98 in (2007)
Month to date precipitation 0.11 0.46  
Year to date precipitation 1.91 1.61  
Snow  
Snow 0.00 in 0.00 in 2.80 in (1893)
Month to date snowfall T 2.3  
Since 1 July snowfall 44.4 36.5  
Snow Depth 0.00 in    
Sea Level Pressure  
Sea Level Pressure 29.88 in    
Wind  
Wind Speed 10 mph (WSW)    
Max Wind Speed 28 mph    
Max Gust Speed 34 mph    
Visibility 10 miles    
Events      
T = Trace of Precipitation, MM = Missing Value Source: NWS Daily Summary

Daily Weather History Graph

Daily Weather History Graph

Search for Another Location

Airport or City:

Trip Planner

Search our weather history database for the weather conditions in past years. The results will help you decide how hot, cold, wet, or windy it might be!

Date:

Astronomy

Apr. 19, 2014 Rise Set
Actual Time 6:20 AM MDT 8:16 PM MDT
Civil Twilight 5:47 AM MDT 8:49 PM MDT
Nautical Twilight 5:06 AM MDT 9:31 PM MDT
Astronomical Twilight 4:20 AM MDT 10:17 PM MDT
Moon 12:14 AM MDT 9:31 AM MDT
Length of Visible Light 15h 02m
Length of Day
13h 55m
Waning Gibbous, 78% of the Moon is Illuminated
Apr 19
Waning Gibbous
Apr 22
Last Quarter
Apr 29
New
May 6
First Quarter
May 14
Full

Hourly Weather History & Observations

Time (MDT) Temp. Windchill Dew Point Humidity Pressure Visibility Wind Dir Wind Speed Gust Speed Precip Events Conditions
12:43 AM 42.1 °F 32.8 °F 32.0 °F 67% 29.82 in 10.0 mi West 21.9 mph 32.2 mph N/A   Overcast
12:53 AM 42.1 °F 33.3 °F 32.0 °F 67% 29.85 in 10.0 mi West 19.6 mph - N/A   Overcast
1:15 AM 42.1 °F 34.2 °F 32.0 °F 67% 29.83 in 10.0 mi West 16.1 mph 29.9 mph N/A   Overcast
1:53 AM 42.1 °F 34.2 °F 30.9 °F 65% 29.86 in 10.0 mi West 16.1 mph - N/A   Overcast
2:53 AM 39.2 °F 29.0 °F 30.2 °F 70% 29.87 in 10.0 mi West 21.9 mph - N/A   Overcast
3:53 AM 39.0 °F 31.4 °F 32.0 °F 76% 29.92 in 10.0 mi West 12.7 mph - N/A   Overcast
4:53 AM 39.0 °F 32.3 °F 32.0 °F 76% 29.93 in 10.0 mi West 10.4 mph - N/A   Overcast
5:53 AM 33.1 °F 26.1 °F 30.0 °F 89% 29.96 in 10.0 mi West 8.1 mph - N/A   Clear
6:53 AM 30.9 °F 22.2 °F 28.9 °F 92% 29.98 in 10.0 mi SSW 10.4 mph - N/A   Clear
7:53 AM 37.0 °F 30.4 °F 30.9 °F 79% 29.98 in 10.0 mi SW 9.2 mph - N/A   Clear
8:53 AM 41.0 °F 34.3 °F 32.0 °F 70% 29.98 in 10.0 mi SW 11.5 mph - N/A   Clear
9:53 AM 46.9 °F - 30.9 °F 54% 29.96 in 10.0 mi SW 13.8 mph - N/A   Clear
10:53 AM 52.0 °F - 28.0 °F 40% 29.94 in 10.0 mi WSW 15.0 mph 24.2 mph N/A   Clear
11:53 AM 54.0 °F - 26.1 °F 34% 29.93 in 10.0 mi WSW 8.1 mph - N/A   Clear
12:53 PM 57.0 °F - 24.1 °F 28% 29.91 in 10.0 mi SW 16.1 mph 24.2 mph N/A   Clear
1:53 PM 59.0 °F - 23.0 °F 25% 29.89 in 10.0 mi SW 13.8 mph 20.7 mph N/A   Clear
2:53 PM 60.1 °F - 19.9 °F 21% 29.89 in 10.0 mi WSW 9.2 mph 23.0 mph N/A   Clear
3:53 PM 61.0 °F - 18.0 °F 19% 29.86 in 10.0 mi WSW 11.5 mph 18.4 mph N/A   Clear
4:53 PM 62.1 °F - 12.9 °F 15% 29.84 in 10.0 mi WSW 9.2 mph - N/A   Clear
5:53 PM 63.0 °F - 12.9 °F 14% 29.83 in 10.0 mi WSW 8.1 mph - N/A   Clear
6:53 PM 61.0 °F - 12.9 °F 15% 29.83 in 10.0 mi SW 4.6 mph - N/A   Clear
7:53 PM 57.0 °F - 19.0 °F 23% 29.81 in 10.0 mi ENE 5.8 mph - N/A   Clear
8:53 PM 46.9 °F - 27.0 °F 46% 29.83 in 10.0 mi East 6.9 mph - N/A   Clear
9:53 PM 48.0 °F - 21.0 °F 34% 29.83 in 10.0 mi ENE 6.9 mph - N/A   Scattered Clouds
10:53 PM 44.1 °F 41.5 °F 26.1 °F 49% 29.81 in 10.0 mi SE 4.6 mph - N/A   Clear
11:53 PM 42.1 °F 40.2 °F 26.1 °F 53% 29.81 in 10.0 mi ESE 3.5 mph - N/A   Clear